"Pseudo-MPEC" for V00278

Created 2016 Jun 1 3:30:44 UT using Find_Orb

Astrometry:
     V00278   C2004 04 13.21585 12 17 17.78 +01 56 37.1                m     683
     V00278   C2004 04 13.21859 12 18 00.84 +01 58 08.3                m     683
     V00278  IC2004 04 13.23232 12 21 40.11 +02 05 22.6                m     683
     V00278   C2004 04 13.23505 12 22 23.66 +02 06 47.8                m     683
     V00278   C2004 04 13.24872 12 26 02.25 +02 13 46.8                m     683
     V00278   C2004 04 13.25146 12 26 45.69 +02 15 07.9                m     683

Station data:
(683) Goodricke-Pigott Observatory, Tucson (N32.1555 W111.0818)  US/Arizona. 
    0.35-m f/5 reflector.

Orbital elements:  V00278
   Perigee 2004 Apr 12.582864 +/- 0.0629 TT = 13:59:19 (JD 2453108.082864)
Epoch 2004 Apr 13.0 TT = JDT 2453108.5                        Find_Orb
M 123.48222 +/- 9                   (J2000 equatorial)
n 296.02401323 +/- 24.3             Peri.  215.07718 +/- 2.1
a 48126.6402 +/- 2637               Node   146.16385 +/- 0.19
e   0.6333388 +/- 0.0328            Incl.    7.07188 +/- 0.14
P1751.18m/1.216d      U 14.9  
q 17646.1709 +/- 2589    Q 78607.1096 +/- 2789
From 6 observations 2004 Apr. 13 (51.3 min); mean residual 2".474
Residuals in arcseconds: 
040413 683 4.39+ 1.10-    040413 683 .177+ .339-    040413 683 3.50+ .651+    
040413 683 5.30- 1.46+    040413 683 .319+ .249-    040413 683 3.09- .422-    

Ephemerides (geocentric):
Date (UTC) HH   RA              Dec         delta   r     elong  " sig PA
---- -- -- --  ------------   ------------  ------ ------ -----  ---- ---
2004 04 13 00  10 55 48.818   +02 10 22.98   73001 1.0031 140.8 1833  90
2004 04 13 01  11 11 48.349   +02 38 19.86   75213 1.0032 144.4 1194  92
2004 04 13 02  11 27 00.408   +03 04 10.13   76861 1.0032 147.8  723  94
2004 04 13 03  11 41 41.028   +03 28 20.01   77962 1.0032 150.9  385  99
2004 04 13 04  11 56 03.694   +03 51 09.78   78527 1.0033 153.9  163 109
2004 04 13 05  12 10 20.527   +04 12 55.42   78561 1.0033 156.6   44 140
2004 04 13 06  12 24 43.199   +04 33 49.59   78064 1.0033 159.2  4.1 143
2004 04 13 07  12 39 23.780   +04 54 02.30   77033 1.0033 161.5   86  64
2004 04 13 08  12 54 35.644   +05 13 41.08   75456 1.0033 163.4  279  71
2004 04 13 09  13 10 34.612   +05 32 50.76   73318 1.0033 164.6  605  76
2004 04 13 10  13 27 40.572   +05 51 32.63   70596 1.0033 164.9 1100  78
2004 04 13 11  13 46 19.993   +06 09 42.37   67259 1.0033 163.9 1825  81
2004 04 13 12  14 07 10.161   +06 27 05.58   63269 1.0033 161.5 2881  82
2004 04 13 13  14 31 06.824   +06 43 07.94   58576 1.0033 157.7 4451  84
2004 04 13 14  14 59 39.165   +06 56 31.96   53116 1.0032 152.1 6881  86
2004 04 13 15  15 35 21.988   +07 04 16.81   46819 1.0032 144.5 181'  88
2004 04 13 16  16 23 13.218   +06 58 42.45   39621 1.0031 133.6 304'  90
2004 04 13 17  17 34 06.599   +06 17 34.25   31556 1.0031 117.0 560'  92
2004 04 13 18  19 35 16.661   +03 48 07.10   23212 1.0030  87.9  19d  96
2004 04 13 19  23 19 47.283   -02 51 45.95   17766 1.0029  34.5  28d  97
2004 04 13 20  03 37 53.523   -07 04 09.33   20887 1.0029  36.0  16d  91
2004 04 13 21  06 06 56.112   -05 45 40.69   28893 1.0029  70.7 468'  87
2004 04 13 22  07 29 01.805   -03 57 23.91   37166 1.0030  90.5 238'  86
2004 04 13 23  08 21 53.179   -02 30 24.89   44652 1.0031 103.2 7637  87
2004 04 14 00  09 00 10.539   -01 22 00.57   51228 1.0032 112.4 3926  89
2004 04 14 01  09 30 11.356   -00 26 38.38   56944 1.0032 119.6 1650  96
2004 04 14 02  09 55 02.621   +00 19 36.89   61873 1.0033 125.5  338 159
2004 04 14 03  10 16 28.298   +00 59 19.57   66079 1.0034 130.6 1031  67
2004 04 14 04  10 35 31.625   +01 34 12.36   69617 1.0034 135.0 1788  75
2004 04 14 05  10 52 53.976   +02 05 25.85   72529 1.0035 139.0 2366  78
2004 04 14 06  11 09 04.178   +02 33 50.14   74849 1.0035 142.6 2809  80
2004 04 14 07  11 24 23.524   +03 00 01.89   76602 1.0036 146.0 3152  81
2004 04 14 08  11 39 08.679   +03 24 28.72   77804 1.0036 149.2 3417  82
2004 04 14 09  11 53 33.497   +03 47 31.87   78469 1.0036 152.2 3619  83
2004 04 14 10  12 07 50.274   +04 09 28.05   78603 1.0036 155.0 3768  83
2004 04 14 11  12 22 10.693   +04 30 30.47   78206 1.0037 157.6 3870  84
2004 04 14 12  12 36 46.678   +04 50 49.61   77276 1.0037 160.0 3927  85
2004 04 14 13  12 51 51.273   +05 10 33.46   75803 1.0037 162.1 3939  86
2004 04 14 14  13 07 39.724   +05 29 47.36   73772 1.0037 163.7 3901  87
2004 04 14 15  13 24 30.986   +05 48 33.37   71162 1.0037 164.4 3805  88
2004 04 14 16  13 42 50.017   +06 06 48.41   67944 1.0037 164.0 3636  89
2004 04 14 17  14 03 11.601   +06 24 20.45   64081 1.0037 162.2 3368  91
2004 04 14 18  14 26 27.135   +06 40 40.05   59524 1.0036 158.9 2952  93
2004 04 14 19  14 53 57.732   +06 54 40.65   54214 1.0036 153.9 2303  96
2004 04 14 20  15 28 01.841   +07 03 48.74   48080 1.0036 146.8 1262 107
2004 04 14 21  16 13 00.245   +07 01 41.65   41054 1.0035 136.9  828  58
2004 04 14 22  17 18 10.129   +06 30 19.66   33137 1.0034 121.7 4498  86
2004 04 14 23  19 06 19.443   +04 31 33.59   24729 1.0033  95.9 215'  93
2004 04 15 00  22 28 33.318   -01 21 14.57   18246 1.0033  47.4 449'  97
2004 04 15 01  02 57 10.778   -06 55 39.94   19688 1.0032  26.6 312'  93
2004 04 15 02  05 45 58.620   -06 06 50.97   27290 1.0033  64.7 5383  92
2004 04 15 03  07 16 44.270   -04 16 00.70   35653 1.0034  86.4  643  30
2004 04 15 04  08 13 33.905   -02 44 45.83   43310 1.0034 100.1 3024  74
2004 04 15 05  08 53 57.898   -01 33 15.09   50057 1.0035 109.8 4400  77
2004 04 15 06  09 25 14.015   -00 35 44.18   55931 1.0036 117.3 5236  79
2004 04 15 07  09 50 53.670   +00 12 01.69   61003 1.0036 123.4 5791  79
2004 04 15 08  10 12 52.119   +00 52 49.96   65341 1.0037 128.6 6187  80
2004 04 15 09  10 32 18.393   +01 28 31.50   69002 1.0038 133.1 6486  81
2004 04 15 10  10 49 57.080   +02 00 21.98   72030 1.0038 137.1 6724  81
2004 04 15 11  11 06 18.894   +02 29 14.77   74460 1.0039 140.8 6923  82